This is the latest recevied weather packets stored in our database for station/object KF6TYS-13. If no packets are shown the sender has not sent any weather packets the latest 10 day(s).
| Time | Temp. | Humidity | Pressure | Rain* | Wind** | Luminosity | Snow |
|---|---|---|---|---|---|---|---|
| 1778241641 | 55.56° C | 100% | 1017.2 hPa | 0 mm | - | - | - |
| 1778239824 | 55.56° C | 100% | 1017.1 hPa | 0 mm | - | - | - |
| 1778238038 | 55.56° C | 100% | 1017.2 hPa | 0 mm | - | - | - |
| 1778236238 | 55.56° C | 100% | 1017.3 hPa | 0 mm | - | - | - |
| 1778234422 | 55° C | 100% | 1017.2 hPa | 0 mm | - | - | - |
| 1778232620 | 55.56° C | 100% | 1017.2 hPa | 0 mm | - | - | - |
| 1778230820 | 55.56° C | 100% | 1017.1 hPa | 0 mm | - | - | - |
| 1778229020 | 55.56° C | 100% | 1017.2 hPa | 0 mm | - | - | - |
| 1778227219 | 55.56° C | 100% | 1017 hPa | 0 mm | - | - | - |
| 1778225417 | 55.56° C | 100% | 1017.1 hPa | 0 mm | - | - | - |
| 1778223616 | 55.56° C | 100% | 1017.1 hPa | 0 mm | - | - | - |
| 1778221815 | 55.56° C | 100% | 1016.9 hPa | 0 mm | - | - | - |
| 1778220030 | 55.56° C | 100% | 1017 hPa | 0 mm | - | - | - |
| 1778218214 | 55.56° C | 100% | 1016.9 hPa | 0 mm | - | - | - |
| 1778216413 | 55.56° C | 100% | 1016.8 hPa | 0 mm | - | - | - |
| 1778214612 | 56.11° C | 100% | 1016.8 hPa | 0 mm | - | - | - |
| 1778212812 | 56.11° C | 100% | 1016.2 hPa | 0 mm | - | - | - |
| 1778211010 | 56.11° C | 100% | 1015.8 hPa | 0 mm | - | - | - |
| 1778209209 | 56.11° C | 97% | 1015.5 hPa | 0 mm | - | - | - |
| 1778207409 | 56.67° C | 91% | 1015.2 hPa | 0 mm | - | - | - |
| 1777840223 | 52.78° C | 77% | 1011.9 hPa | 0 mm | - | - | - |
| 1777838422 | 53.33° C | 81% | 1012.1 hPa | 0 mm | - | - | - |
| 1777836622 | 54.44° C | 81% | 1012.2 hPa | 0 mm | - | - | - |
| 1777834822 | 54.44° C | 83% | 1012.2 hPa | 0 mm | - | - | - |
| 1777833020 | 54.44° C | 82% | 1012.1 hPa | 0 mm | - | - | - |
* Rain latest hour (hover to see other rain measurements)
** Current wind speed in m/s (hover to see current wind gust speed)